Time,TemperatureF,DewpointF,PressureIn,WindDirection,WindDirectionDegrees,WindSpeedMPH,WindSpeedGustMPH,Humidity,HourlyPrecipIn,Conditions,Clouds,dailyrainin,SoftwareType,DateUTC
2013-02-25 00:00:00,32.9,25.5,29.94,WSW,240,0.0,2.0,74,0.00,,,0.01,meteohub,2013-02-25 05:00:00,
2013-02-25 00:05:00,32.7,25.3,29.94,WSW,241,0.0,1.0,74,0.00,,,0.00,meteohub,2013-02-25 05:05:00,
2013-02-25 00:10:00,32.7,25.3,29.94,SW,235,0.0,1.0,74,0.00,,,0.00,meteohub,2013-02-25 05:10:00,
2013-02-25 00:15:00,32.7,25.7,29.95,WSW,239,0.0,2.0,75,0.00,,,0.00,meteohub,2013-02-25 05:15:00,
2013-02-25 00:20:00,32.7,25.7,29.95,WSW,239,0.0,2.0,75,0.00,,,0.00,meteohub,2013-02-25 05:20:00,
2013-02-25 00:25:00,32.7,25.7,29.95,SSE,158,0.0,2.0,75,0.00,,,0.00,meteohub,2013-02-25 05:25:00,
2013-02-25 00:30:00,32.7,25.7,29.95,SSE,158,0.0,1.0,75,0.00,,,0.00,meteohub,2013-02-25 05:30:00,
2013-02-25 00:35:00,32.7,25.7,29.95,SW,224,0.0,1.0,75,0.00,,,0.00,meteohub,2013-02-25 05:35:00,
2013-02-25 00:40:00,32.7,25.7,29.95,West,262,1.0,1.0,75,0.00,,,0.00,meteohub,2013-02-25 05:40:00,
2013-02-25 00:45:00,32.7,25.7,29.96,West,276,0.0,1.0,75,0.00,,,0.00,meteohub,2013-02-25 05:45:00,
2013-02-25 00:50:00,32.7,25.7,29.96,West,270,0.0,1.0,75,0.00,,,0.00,meteohub,2013-02-25 05:50:00,
2013-02-25 00:55:00,32.5,25.5,29.96,SW,235,0.0,2.0,75,0.00,,,0.00,meteohub,2013-02-25 05:55:00,
2013-02-25 01:00:00,32.5,25.5,29.96,NW,304,0.0,2.0,75,0.00,,,0.00,meteohub,2013-02-25 06:00:00,
2013-02-25 01:05:00,32.5,25.5,29.96,WSW,239,0.0,1.0,75,0.00,,,0.00,meteohub,2013-02-25 06:05:00,
2013-02-25 01:10:00,32.4,25.3,29.96,WSW,245,0.0,1.0,75,0.00,,,0.00,meteohub,2013-02-25 06:10:00,
2013-02-25 01:15:00,32.4,25.3,29.96,WSW,243,0.0,1.0,75,0.00,,,0.00,meteohub,2013-02-25 06:15:00,
2013-02-25 01:20:00,32.2,25.2,29.97,WSW,245,0.0,2.0,75,0.00,,,0.00,meteohub,2013-02-25 06:20:00,
2013-02-25 01:25:00,32.2,25.2,29.97,WSW,252,0.0,2.0,75,0.00,,,0.00,meteohub,2013-02-25 06:25:00,
2013-02-25 01:30:00,32.2,25.2,29.98,West,277,1.0,2.0,75,0.00,,,0.00,meteohub,2013-02-25 06:30:00,
2013-02-25 01:35:00,32.2,25.2,29.98,WSW,243,0.0,1.0,75,0.00,,,0.00,meteohub,2013-02-25 06:35:00,
2013-02-25 01:40:00,32.2,25.2,29.98,WSW,246,0.0,2.0,75,0.00,,,0.00,meteohub,2013-02-25 06:40:00,
2013-02-25 01:45:00,32.0,25.0,29.98,WSW,247,0.0,2.0,75,0.00,,,0.00,meteohub,2013-02-25 06:45:00,
2013-02-25 01:50:00,31.8,25.2,29.98,South,184,0.0,2.0,76,0.00,,,0.00,meteohub,2013-02-25 06:50:00,
2013-02-25 01:55:00,31.6,25.0,29.98,South,184,0.0,1.0,76,0.00,,,0.00,meteohub,2013-02-25 06:55:00,
2013-02-25 02:00:00,31.6,25.0,29.99,South,186,0.0,1.0,76,0.00,,,0.00,meteohub,2013-02-25 07:00:00,
2013-02-25 02:05:00,31.6,25.0,29.99,South,186,0.0,1.0,76,0.00,,,0.00,meteohub,2013-02-25 07:05:00,
2013-02-25 02:10:00,31.6,25.3,29.99,South,191,0.0,1.0,77,0.00,,,0.00,meteohub,2013-02-25 07:10:00,
2013-02-25 02:15:00,31.6,25.0,29.99,South,191,0.0,0.0,76,0.00,,,0.00,meteohub,2013-02-25 07:15:00,
2013-02-25 02:20:00,31.6,25.0,29.99,South,169,0.0,0.0,76,0.00,,,0.00,meteohub,2013-02-25 07:20:00,
2013-02-25 02:25:00,31.6,25.0,29.99,WSW,243,0.0,0.0,76,0.00,,,0.00,meteohub,2013-02-25 07:25:00,
2013-02-25 02:30:00,31.6,25.0,29.99,WSW,242,0.0,0.0,76,0.00,,,0.00,meteohub,2013-02-25 07:30:00,
2013-02-25 02:35:00,31.6,25.0,29.99,WSW,242,0.0,0.0,76,0.00,,,0.00,meteohub,2013-02-25 07:35:00,
2013-02-25 02:40:00,31.5,24.8,29.99,WSW,246,0.0,0.0,76,0.00,,,0.00,meteohub,2013-02-25 07:40:00,
2013-02-25 02:45:00,31.5,24.8,29.99,WSW,246,0.0,0.0,76,0.00,,,0.00,meteohub,2013-02-25 07:45:00,
2013-02-25 02:50:00,31.3,24.6,29.99,WSW,246,0.0,0.0,76,0.00,,,0.00,meteohub,2013-02-25 07:50:00,
2013-02-25 02:55:00,31.3,25.0,29.99,WSW,246,0.0,0.0,77,0.00,,,0.00,meteohub,2013-02-25 07:55:00,
2013-02-25 03:00:00,31.3,25.0,29.99,WSW,246,0.0,0.0,77,0.00,,,0.00,meteohub,2013-02-25 08:00:00,
2013-02-25 03:05:00,31.1,24.8,29.99,WSW,246,0.0,0.0,77,0.00,,,0.00,meteohub,2013-02-25 08:05:00,
2013-02-25 03:10:00,30.9,24.8,29.99,WSW,246,0.0,0.0,78,0.00,,,0.00,meteohub,2013-02-25 08:10:00,
2013-02-25 03:15:00,30.7,24.6,29.99,WSW,247,0.0,0.0,78,0.00,,,0.00,meteohub,2013-02-25 08:15:00,
2013-02-25 03:20:00,30.6,24.8,30.00,WSW,246,0.0,0.0,79,0.00,,,0.00,meteohub,2013-02-25 08:20:00,
2013-02-25 03:25:00,30.4,25.0,30.00,WSW,246,0.0,0.0,80,0.00,,,0.00,meteohub,2013-02-25 08:25:00,
2013-02-25 03:30:00,30.4,25.0,30.01,WSW,246,0.0,0.0,80,0.00,,,0.00,meteohub,2013-02-25 08:30:00,
2013-02-25 03:35:00,30.4,25.3,30.01,WSW,246,0.0,0.0,81,0.00,,,0.00,meteohub,2013-02-25 08:35:00,
2013-02-25 03:40:00,30.2,25.2,30.01,WSW,246,0.0,0.0,81,0.00,,,0.00,meteohub,2013-02-25 08:40:00,
2013-02-25 03:45:00,30.0,25.0,30.01,WSW,246,0.0,0.0,81,0.00,,,0.00,meteohub,2013-02-25 08:45:00,
2013-02-25 03:50:00,30.0,25.2,30.01,WSW,246,0.0,0.0,82,0.00,,,0.00,meteohub,2013-02-25 08:50:00,
2013-02-25 03:55:00,29.8,25.0,30.01,WSW,246,0.0,0.0,82,0.00,,,0.00,meteohub,2013-02-25 08:55:00,
2013-02-25 04:00:00,29.8,25.0,30.02,WSW,246,0.0,0.0,82,0.00,,,0.00,meteohub,2013-02-25 09:00:00,
2013-02-25 04:05:00,29.8,25.0,30.02,WSW,247,0.0,0.0,82,0.00,,,0.00,meteohub,2013-02-25 09:05:00,
2013-02-25 04:10:00,29.7,25.2,30.02,WSW,246,0.0,0.0,83,0.00,,,0.00,meteohub,2013-02-25 09:10:00,
2013-02-25 04:15:00,29.7,25.2,30.02,WSW,246,0.0,0.0,83,0.00,,,0.00,meteohub,2013-02-25 09:15:00,
2013-02-25 04:20:00,29.7,25.2,30.02,WSW,246,0.0,0.0,83,0.00,,,0.00,meteohub,2013-02-25 09:20:00,
2013-02-25 04:25:00,29.7,25.3,30.02,WSW,246,0.0,0.0,84,0.00,,,0.00,meteohub,2013-02-25 09:25:00,
2013-02-25 04:30:00,29.5,25.2,30.02,WSW,246,0.0,0.0,84,0.00,,,0.00,meteohub,2013-02-25 09:30:00,
2013-02-25 04:35:00,29.5,25.2,30.02,WSW,246,0.0,0.0,84,0.00,,,0.00,meteohub,2013-02-25 09:35:00,
2013-02-25 04:40:00,29.3,25.3,30.02,WSW,247,0.0,0.0,85,0.00,,,0.00,meteohub,2013-02-25 09:40:00,
2013-02-25 04:45:00,29.1,25.2,30.02,WSW,247,0.0,0.0,85,0.00,,,0.00,meteohub,2013-02-25 09:45:00,
2013-02-25 04:50:00,29.1,25.2,30.02,WSW,246,0.0,0.0,85,0.00,,,0.00,meteohub,2013-02-25 09:50:00,
2013-02-25 04:55:00,28.9,25.0,30.02,WSW,246,0.0,0.0,85,0.00,,,0.00,meteohub,2013-02-25 09:55:00,
2013-02-25 05:01:00,28.9,25.0,30.03,WSW,246,0.0,0.0,85,0.00,,,0.00,meteohub,2013-02-25 10:01:00,
2013-02-25 05:06:00,28.8,25.2,30.03,WSW,246,0.0,0.0,86,0.00,,,0.00,meteohub,2013-02-25 10:06:00,
2013-02-25 05:11:00,28.8,25.2,30.02,WSW,246,0.0,0.0,86,0.00,,,0.00,meteohub,2013-02-25 10:11:00,
2013-02-25 05:16:00,28.6,25.0,30.03,WSW,246,0.0,0.0,86,0.00,,,0.00,meteohub,2013-02-25 10:16:00,
2013-02-25 05:21:00,28.6,25.0,30.03,WSW,246,0.0,0.0,86,0.00,,,0.00,meteohub,2013-02-25 10:21:00,
2013-02-25 05:26:00,28.2,24.6,30.03,WSW,247,0.0,0.0,86,0.00,,,0.00,meteohub,2013-02-25 10:26:00,
2013-02-25 05:31:00,28.2,24.6,30.03,WSW,246,0.0,0.0,86,0.00,,,0.00,meteohub,2013-02-25 10:31:00,
2013-02-25 05:36:00,28.0,24.6,30.04,WSW,246,0.0,0.0,87,0.00,,,0.00,meteohub,2013-02-25 10:36:00,
2013-02-25 05:41:00,28.0,24.6,30.04,WSW,246,0.0,0.0,87,0.00,,,0.00,meteohub,2013-02-25 10:41:00,
2013-02-25 05:46:00,28.0,24.6,30.04,WSW,246,0.0,0.0,87,0.00,,,0.00,meteohub,2013-02-25 10:46:00,
2013-02-25 05:51:00,28.0,24.6,30.04,WSW,246,0.0,0.0,87,0.00,,,0.00,meteohub,2013-02-25 10:51:00,
2013-02-25 05:56:00,28.0,24.6,30.04,WSW,247,0.0,0.0,87,0.00,,,0.00,meteohub,2013-02-25 10:56:00,
2013-02-25 06:01:00,27.9,24.4,30.04,WSW,246,0.0,0.0,87,0.00,,,0.00,meteohub,2013-02-25 11:01:00,
2013-02-25 06:06:00,27.9,24.4,30.05,WSW,246,0.0,0.0,87,0.00,,,0.00,meteohub,2013-02-25 11:06:00,
2013-02-25 06:11:00,27.7,24.3,30.05,WSW,247,0.0,0.0,87,0.00,,,0.00,meteohub,2013-02-25 11:11:00,
2013-02-25 06:16:00,27.7,24.3,30.05,WSW,246,0.0,0.0,87,0.00,,,0.00,meteohub,2013-02-25 11:16:00,
2013-02-25 06:21:00,27.5,24.1,30.06,WSW,246,0.0,0.0,87,0.00,,,0.00,meteohub,2013-02-25 11:21:00,
2013-02-25 06:26:00,27.5,24.4,30.06,WSW,246,0.0,0.0,88,0.00,,,0.00,meteohub,2013-02-25 11:26:00,
2013-02-25 06:31:00,27.3,24.3,30.06,WSW,246,0.0,0.0,88,0.00,,,0.00,meteohub,2013-02-25 11:31:00,
2013-02-25 06:36:00,27.3,24.3,30.06,WSW,246,0.0,0.0,88,0.00,,,0.00,meteohub,2013-02-25 11:36:00,
2013-02-25 06:41:00,27.1,24.1,30.06,WSW,246,0.0,0.0,88,0.00,,,0.00,meteohub,2013-02-25 11:41:00,
2013-02-25 06:46:00,27.1,24.1,30.06,WSW,246,0.0,0.0,88,0.00,,,0.00,meteohub,2013-02-25 11:46:00,
2013-02-25 06:51:00,27.1,24.1,30.06,WSW,246,0.0,0.0,88,0.00,,,0.00,meteohub,2013-02-25 11:51:00,
2013-02-25 06:56:00,27.1,24.1,30.06,WSW,246,0.0,0.0,88,0.00,,,0.00,meteohub,2013-02-25 11:56:00,
2013-02-25 07:01:00,27.1,24.1,30.06,WSW,246,0.0,0.0,88,0.00,,,0.00,meteohub,2013-02-25 12:01:00,
2013-02-25 07:06:00,27.1,24.3,30.06,WSW,245,0.0,0.0,89,0.00,,,0.00,meteohub,2013-02-25 12:06:00,
2013-02-25 07:11:00,27.3,24.4,30.07,WSW,246,0.0,0.0,89,0.00,,,0.00,meteohub,2013-02-25 12:11:00,
2013-02-25 07:16:00,27.5,24.6,30.07,WSW,246,0.0,0.0,89,0.00,,,0.00,meteohub,2013-02-25 12:16:00,
2013-02-25 07:21:00,27.7,24.8,30.07,WSW,246,0.0,0.0,89,0.00,,,0.00,meteohub,2013-02-25 12:21:00,
2013-02-25 07:26:00,28.0,25.5,30.07,WSW,246,0.0,0.0,90,0.00,,,0.00,meteohub,2013-02-25 12:26:00,
2013-02-25 07:31:00,28.2,25.7,30.08,WSW,247,0.0,0.0,90,0.00,,,0.00,meteohub,2013-02-25 12:31:00,
2013-02-25 07:36:00,28.6,26.1,30.08,WSW,246,0.0,0.0,90,0.00,,,0.00,meteohub,2013-02-25 12:36:00,
2013-02-25 07:42:00,28.9,26.4,30.08,WSW,246,0.0,0.0,90,0.00,,,0.00,meteohub,2013-02-25 12:42:00,
2013-02-25 07:48:00,29.7,27.1,30.09,WSW,246,0.0,0.0,90,0.00,,,0.00,meteohub,2013-02-25 12:48:00,
2013-02-25 07:53:00,30.7,28.2,30.09,WSW,246,0.0,0.0,90,0.00,,,0.00,meteohub,2013-02-25 12:53:00,
2013-02-25 07:58:00,31.6,28.6,30.10,ESE,113,0.0,3.0,88,0.00,,,0.00,meteohub,2013-02-25 12:58:00,
2013-02-25 08:03:00,32.7,28.9,30.10,ESE,120,0.0,3.0,86,0.00,,,0.00,meteohub,2013-02-25 13:03:00,
2013-02-25 08:08:00,33.4,28.2,30.10,WSW,245,0.0,3.0,81,0.00,,,0.00,meteohub,2013-02-25 13:08:00,
2013-02-25 08:13:00,34.0,27.9,30.10,WSW,245,0.0,2.0,78,0.00,,,0.00,meteohub,2013-02-25 13:13:00,
2013-02-25 08:18:00,34.2,27.7,30.10,ENE,73,0.0,2.0,77,0.00,,,0.00,meteohub,2013-02-25 13:18:00,
2013-02-25 08:23:00,34.5,27.7,30.10,SE,143,0.0,1.0,76,0.00,,,0.00,meteohub,2013-02-25 13:23:00,
2013-02-25 08:28:00,34.7,27.3,30.10,NNW,342,0.0,1.0,74,0.00,,,0.00,meteohub,2013-02-25 13:28:00,
2013-02-25 08:34:00,35.1,27.7,30.10,East,96,0.0,3.0,74,0.00,,,0.00,meteohub,2013-02-25 13:34:00,
2013-02-25 08:39:00,35.2,27.9,30.10,WSW,250,2.0,3.0,74,0.00,,,0.00,meteohub,2013-02-25 13:39:00,
2013-02-25 08:44:00,35.4,27.7,30.10,SE,133,1.0,3.0,73,0.00,,,0.00,meteohub,2013-02-25 13:44:00,
2013-02-25 08:49:00,35.8,28.0,30.10,SW,231,0.0,4.0,73,0.00,,,0.00,meteohub,2013-02-25 13:49:00,
2013-02-25 08:54:00,36.0,27.9,30.10,WSW,257,1.0,4.0,72,0.00,,,0.00,meteohub,2013-02-25 13:54:00,
2013-02-25 08:59:00,36.1,28.0,30.11,WSW,244,0.0,4.0,72,0.00,,,0.00,meteohub,2013-02-25 13:59:00,
2013-02-25 09:04:00,36.5,28.4,30.11,East,101,1.0,4.0,72,0.00,,,0.00,meteohub,2013-02-25 14:04:00,
2013-02-25 09:09:00,36.9,28.4,30.11,West,275,1.0,4.0,71,0.00,,,0.00,meteohub,2013-02-25 14:09:00,
2013-02-25 09:15:00,37.2,28.8,30.11,NE,51,0.0,7.0,71,0.00,,,0.00,meteohub,2013-02-25 14:15:00,
2013-02-25 09:20:00,37.6,28.8,30.11,East,81,0.0,7.0,70,0.00,,,0.00,meteohub,2013-02-25 14:20:00,
2013-02-25 09:25:00,37.9,28.8,30.10,ESE,108,0.0,4.0,69,0.00,,,0.00,meteohub,2013-02-25 14:25:00,
2013-02-25 09:30:00,38.3,28.9,30.10,ENE,75,0.0,3.0,69,0.00,,,0.00,meteohub,2013-02-25 14:30:00,
2013-02-25 09:35:00,38.7,29.3,30.11,WSW,250,1.0,4.0,69,0.00,,,0.00,meteohub,2013-02-25 14:35:00,
2013-02-25 09:40:00,38.8,28.4,30.11,ENE,72,1.0,4.0,66,0.00,,,0.00,meteohub,2013-02-25 14:40:00,
2013-02-25 09:45:00,39.0,28.9,30.11,SW,226,1.0,4.0,67,0.00,,,0.00,meteohub,2013-02-25 14:45:00,
2013-02-25 09:50:00,39.4,29.3,30.11,WSW,255,0.0,4.0,67,0.00,,,0.00,meteohub,2013-02-25 14:50:00,
2013-02-25 09:55:00,39.6,29.1,30.12,ENE,78,0.0,4.0,66,0.00,,,0.00,meteohub,2013-02-25 14:55:00,
2013-02-25 10:00:00,39.7,28.9,30.12,East,89,0.0,3.0,65,0.00,,,0.00,meteohub,2013-02-25 15:00:00,
2013-02-25 10:05:00,39.9,29.1,30.11,ENE,70,1.0,3.0,65,0.00,,,0.00,meteohub,2013-02-25 15:05:00,
2013-02-25 10:10:00,40.1,28.9,30.11,North,1,0.0,7.0,64,0.00,,,0.00,meteohub,2013-02-25 15:10:00,
2013-02-25 10:15:00,40.3,29.1,30.11,East,93,0.0,7.0,64,0.00,,,0.00,meteohub,2013-02-25 15:15:00,
2013-02-25 10:20:00,40.5,29.7,30.11,East,79,1.0,7.0,65,0.00,,,0.00,meteohub,2013-02-25 15:20:00,
2013-02-25 10:25:00,40.6,29.8,30.11,West,262,0.0,6.0,65,0.00,,,0.00,meteohub,2013-02-25 15:25:00,
2013-02-25 10:30:00,40.8,30.0,30.11,NNW,330,0.0,6.0,65,0.00,,,0.00,meteohub,2013-02-25 15:30:00,
2013-02-25 10:35:00,41.0,29.8,30.11,East,83,1.0,5.0,64,0.00,,,0.00,meteohub,2013-02-25 15:35:00,
2013-02-25 10:40:00,41.2,30.4,30.11,West,271,2.0,6.0,65,0.00,,,0.00,meteohub,2013-02-25 15:40:00,
2013-02-25 10:45:00,41.4,30.9,30.11,West,278,1.0,6.0,66,0.00,,,0.00,meteohub,2013-02-25 15:45:00,
2013-02-25 10:50:00,41.4,30.0,30.11,SSE,160,0.0,6.0,64,0.00,,,0.00,meteohub,2013-02-25 15:50:00,
2013-02-25 10:55:00,41.4,30.6,30.11,WSW,256,0.0,4.0,65,0.00,,,0.00,meteohub,2013-02-25 15:55:00,
2013-02-25 11:00:00,41.9,30.9,30.11,ENE,77,4.0,4.0,65,0.00,,,0.00,meteohub,2013-02-25 16:00:00,
2013-02-25 11:05:00,41.9,29.8,30.12,ESE,116,1.0,5.0,62,0.00,,,0.00,meteohub,2013-02-25 16:05:00,
2013-02-25 11:10:00,42.3,30.9,30.12,WNW,282,1.0,5.0,64,0.00,,,0.00,meteohub,2013-02-25 16:10:00,
2013-02-25 11:15:00,42.4,30.0,30.12,WNW,291,0.0,5.0,61,0.00,,,0.00,meteohub,2013-02-25 16:15:00,
2013-02-25 11:20:00,43.0,31.3,30.12,SW,233,3.0,8.0,63,0.00,,,0.00,meteohub,2013-02-25 16:20:00,
2013-02-25 11:25:00,43.0,30.9,30.11,WSW,257,0.0,8.0,62,0.00,,,0.00,meteohub,2013-02-25 16:25:00,
2013-02-25 11:30:00,43.0,30.9,30.11,ENE,63,6.0,6.0,62,0.00,,,0.00,meteohub,2013-02-25 16:30:00,
2013-02-25 11:35:00,43.3,31.3,30.12,West,262,0.0,6.0,62,0.00,,,0.00,meteohub,2013-02-25 16:35:00,
2013-02-25 11:41:00,43.5,30.9,30.11,NW,304,0.0,6.0,61,0.00,,,0.00,meteohub,2013-02-25 16:41:00,
2013-02-25 11:46:00,44.1,31.1,30.12,WSW,250,3.0,6.0,60,0.00,,,0.00,meteohub,2013-02-25 16:46:00,
2013-02-25 11:51:00,43.9,30.6,30.12,West,265,2.0,6.0,59,0.00,,,0.00,meteohub,2013-02-25 16:51:00,
2013-02-25 11:56:00,44.2,30.7,30.12,WSW,239,0.0,6.0,59,0.00,,,0.00,meteohub,2013-02-25 16:56:00,
2013-02-25 12:01:00,44.4,30.2,30.12,East,92,1.0,6.0,57,0.00,,,0.00,meteohub,2013-02-25 17:01:00,
2013-02-25 12:06:00,44.1,28.9,30.12,NW,323,0.0,7.0,55,0.00,,,0.00,meteohub,2013-02-25 17:06:00,
2013-02-25 12:11:00,43.9,29.7,30.12,WSW,248,0.0,7.0,57,0.00,,,0.00,meteohub,2013-02-25 17:11:00,
2013-02-25 12:16:00,43.5,30.2,30.12,West,276,0.0,3.0,59,0.00,,,0.00,meteohub,2013-02-25 17:16:00,
2013-02-25 12:21:00,43.9,30.6,30.11,West,263,2.0,3.0,59,0.00,,,0.00,meteohub,2013-02-25 17:21:00,
2013-02-25 12:26:00,44.4,30.6,30.12,SE,143,1.0,3.0,58,0.00,,,0.00,meteohub,2013-02-25 17:26:00,
2013-02-25 12:31:00,44.2,29.5,30.12,ESE,109,0.0,3.0,56,0.00,,,0.00,meteohub,2013-02-25 17:31:00,
2013-02-25 12:36:00,44.2,30.4,30.12,SW,225,0.0,3.0,58,0.00,,,0.00,meteohub,2013-02-25 17:36:00,
2013-02-25 12:41:00,44.8,31.3,30.12,West,260,0.0,2.0,59,0.00,,,0.00,meteohub,2013-02-25 17:41:00,
2013-02-25 12:46:00,45.3,30.9,30.12,West,267,0.0,4.0,57,0.00,,,0.00,meteohub,2013-02-25 17:46:00,
2013-02-25 12:51:00,45.3,30.6,30.12,SW,231,0.0,5.0,56,0.00,,,0.00,meteohub,2013-02-25 17:51:00,
2013-02-25 12:56:00,45.1,30.4,30.12,ENE,67,0.0,5.0,56,0.00,,,0.00,meteohub,2013-02-25 17:56:00,
2013-02-25 13:01:00,45.9,32.0,30.12,West,259,0.0,5.0,58,0.00,,,0.00,meteohub,2013-02-25 18:01:00,
2013-02-25 13:06:00,46.0,30.4,30.12,SE,127,0.0,5.0,54,0.00,,,0.00,meteohub,2013-02-25 18:06:00,
2013-02-25 13:11:00,46.2,30.6,30.13,NW,322,0.0,5.0,54,0.00,,,0.00,meteohub,2013-02-25 18:11:00,
2013-02-25 13:16:00,46.8,31.5,30.12,West,264,2.0,5.0,55,0.00,,,0.00,meteohub,2013-02-25 18:16:00,
2013-02-25 13:21:00,46.9,30.7,30.12,West,262,1.0,8.0,53,0.00,,,0.00,meteohub,2013-02-25 18:21:00,
2013-02-25 13:26:00,47.1,30.9,30.12,East,85,0.0,8.0,53,0.00,,,0.00,meteohub,2013-02-25 18:26:00,
2013-02-25 13:31:00,47.3,30.0,30.12,NNW,332,0.0,8.0,51,0.00,,,0.00,meteohub,2013-02-25 18:31:00,
2013-02-25 13:36:00,46.6,29.5,30.12,ENE,69,2.0,2.0,51,0.00,,,0.00,meteohub,2013-02-25 18:36:00,
2013-02-25 13:41:00,45.5,28.9,30.12,East,86,0.0,7.0,52,0.00,,,0.00,meteohub,2013-02-25 18:41:00,
2013-02-25 13:46:00,45.1,29.5,30.11,ESE,105,3.0,7.0,54,0.00,,,0.00,meteohub,2013-02-25 18:46:00,
2013-02-25 13:51:00,45.3,29.7,30.11,ENE,73,1.0,7.0,54,0.00,,,0.00,meteohub,2013-02-25 18:51:00,
2013-02-25 13:56:00,45.9,30.2,30.12,WSW,245,0.0,5.0,54,0.00,,,0.00,meteohub,2013-02-25 18:56:00,
2013-02-25 14:01:00,46.6,30.4,30.11,North,10,1.0,5.0,53,0.00,,,0.00,meteohub,2013-02-25 19:01:00,
2013-02-25 14:06:00,46.6,29.5,30.12,West,262,0.0,5.0,51,0.00,,,0.00,meteohub,2013-02-25 19:06:00,
2013-02-25 14:11:00,46.2,29.1,30.12,West,263,0.0,5.0,51,0.00,,,0.00,meteohub,2013-02-25 19:11:00,
2013-02-25 14:16:00,45.9,28.8,30.12,NE,56,0.0,5.0,51,0.00,,,0.00,meteohub,2013-02-25 19:16:00,
2013-02-25 14:21:00,46.4,29.3,30.12,NW,318,1.0,2.0,51,0.00,,,0.00,meteohub,2013-02-25 19:21:00,
2013-02-25 14:26:00,46.8,29.1,30.12,SSW,210,0.0,3.0,50,0.00,,,0.00,meteohub,2013-02-25 19:26:00,
2013-02-25 14:31:00,46.0,28.4,30.12,ENE,75,2.0,3.0,50,0.00,,,0.00,meteohub,2013-02-25 19:31:00,
2013-02-25 14:36:00,45.3,28.2,30.12,ESE,117,1.0,4.0,51,0.00,,,0.00,meteohub,2013-02-25 19:36:00,
2013-02-25 14:41:00,45.3,29.1,30.12,West,274,0.0,4.0,53,0.00,,,0.00,meteohub,2013-02-25 19:41:00,
2013-02-25 14:46:00,45.9,29.7,30.12,West,264,0.0,4.0,53,0.00,,,0.00,meteohub,2013-02-25 19:46:00,
2013-02-25 14:51:00,45.5,28.4,30.12,West,277,0.0,4.0,51,0.00,,,0.00,meteohub,2013-02-25 19:51:00,
2013-02-25 14:56:00,45.1,28.9,30.13,ESE,117,2.0,4.0,53,0.00,,,0.00,meteohub,2013-02-25 19:56:00,
2013-02-25 15:01:00,45.0,29.8,30.13,SE,145,0.0,2.0,55,0.00,,,0.00,meteohub,2013-02-25 20:01:00,
2013-02-25 15:06:00,44.8,28.8,30.13,ESE,121,1.0,3.0,53,0.00,,,0.00,meteohub,2013-02-25 20:06:00,
2013-02-25 15:11:00,44.8,29.1,30.13,East,84,0.0,3.0,54,0.00,,,0.00,meteohub,2013-02-25 20:11:00,
2013-02-25 15:16:00,45.9,30.2,30.13,West,269,0.0,3.0,54,0.00,,,0.00,meteohub,2013-02-25 20:16:00,
2013-02-25 15:21:00,46.6,30.4,30.13,SSE,158,0.0,3.0,53,0.00,,,0.00,meteohub,2013-02-25 20:21:00,
2013-02-25 15:26:00,46.8,29.7,30.14,WSW,246,0.0,3.0,51,0.00,,,0.00,meteohub,2013-02-25 20:26:00,
2013-02-25 15:31:00,46.4,29.3,30.13,NW,321,0.0,3.0,51,0.00,,,0.00,meteohub,2013-02-25 20:31:00,
2013-02-25 15:36:00,46.4,30.2,30.13,WNW,294,0.0,3.0,53,0.00,,,0.00,meteohub,2013-02-25 20:36:00,
2013-02-25 15:41:00,45.9,29.3,30.13,SW,227,1.0,3.0,52,0.00,,,0.00,meteohub,2013-02-25 20:41:00,
2013-02-25 15:46:00,45.3,28.8,30.13,East,93,1.0,2.0,52,0.00,,,0.00,meteohub,2013-02-25 20:46:00,
2013-02-25 15:51:00,45.0,29.3,30.13,West,262,0.0,5.0,54,0.00,,,0.00,meteohub,2013-02-25 20:51:00,
2013-02-25 15:56:00,45.0,28.9,30.13,NNE,28,0.0,5.0,53,0.00,,,0.00,meteohub,2013-02-25 20:56:00,
2013-02-25 16:01:00,45.1,28.9,30.13,SSE,149,0.0,5.0,53,0.00,,,0.00,meteohub,2013-02-25 21:01:00,
2013-02-25 16:07:00,45.1,28.9,30.14,WNW,285,0.0,4.0,53,0.00,,,0.00,meteohub,2013-02-25 21:07:00,
2013-02-25 16:12:00,44.6,28.6,30.14,NE,34,0.0,2.0,53,0.00,,,0.00,meteohub,2013-02-25 21:12:00,
2013-02-25 16:17:00,44.2,28.6,30.15,NNE,30,0.0,2.0,54,0.00,,,0.00,meteohub,2013-02-25 21:17:00,
2013-02-25 16:22:00,44.2,28.6,30.14,NE,50,0.0,1.0,54,0.00,,,0.00,meteohub,2013-02-25 21:22:00,
2013-02-25 16:27:00,44.1,28.9,30.14,ENE,75,0.0,0.0,55,0.00,,,0.00,meteohub,2013-02-25 21:27:00,
2013-02-25 16:32:00,43.9,28.8,30.14,NNE,23,0.0,0.0,55,0.00,,,0.00,meteohub,2013-02-25 21:32:00,
2013-02-25 16:37:00,43.5,28.0,30.14,West,273,0.0,0.0,54,0.00,,,0.00,meteohub,2013-02-25 21:37:00,
2013-02-25 16:42:00,43.3,28.2,30.14,West,273,0.0,0.0,55,0.00,,,0.00,meteohub,2013-02-25 21:42:00,
2013-02-25 16:47:00,43.2,28.9,30.14,West,273,0.0,0.0,57,0.00,,,0.00,meteohub,2013-02-25 21:47:00,
2013-02-25 16:52:00,43.0,28.4,30.14,SW,226,0.0,2.0,56,0.00,,,0.00,meteohub,2013-02-25 21:52:00,
2013-02-25 16:57:00,42.6,28.4,30.14,WSW,250,0.0,2.0,57,0.00,,,0.00,meteohub,2013-02-25 21:57:00,
2013-02-25 17:02:00,42.4,27.9,30.14,WSW,250,0.0,2.0,56,0.00,,,0.00,meteohub,2013-02-25 22:02:00,
2013-02-25 17:07:00,42.3,28.0,30.14,WSW,250,0.0,1.0,57,0.00,,,0.00,meteohub,2013-02-25 22:07:00,
2013-02-25 17:12:00,42.1,28.8,30.14,WSW,250,0.0,1.0,59,0.00,,,0.00,meteohub,2013-02-25 22:12:00,
2013-02-25 17:17:00,41.7,28.4,30.14,WSW,250,0.0,1.0,59,0.00,,,0.00,meteohub,2013-02-25 22:17:00,
2013-02-25 17:22:00,41.7,28.4,30.14,WSW,250,0.0,0.0,59,0.00,,,0.00,meteohub,2013-02-25 22:22:00,
2013-02-25 17:27:00,41.5,28.2,30.15,WSW,250,0.0,0.0,59,0.00,,,0.00,meteohub,2013-02-25 22:27:00,
2013-02-25 17:32:00,41.5,28.2,30.15,WSW,250,0.0,0.0,59,0.00,,,0.00,meteohub,2013-02-25 22:32:00,
2013-02-25 17:37:00,41.5,28.8,30.15,WSW,250,0.0,0.0,60,0.00,,,0.00,meteohub,2013-02-25 22:37:00,
2013-02-25 17:42:00,41.5,29.1,30.15,WSW,250,0.0,0.0,61,0.00,,,0.00,meteohub,2013-02-25 22:42:00,
2013-02-25 17:47:00,41.5,29.1,30.15,WSW,250,0.0,0.0,61,0.00,,,0.00,meteohub,2013-02-25 22:47:00,
2013-02-25 17:52:00,41.4,28.9,30.16,WSW,250,0.0,0.0,61,0.00,,,0.00,meteohub,2013-02-25 22:52:00,
2013-02-25 17:57:00,41.4,28.9,30.16,WSW,250,0.0,0.0,61,0.00,,,0.00,meteohub,2013-02-25 22:57:00,
2013-02-25 18:02:00,41.2,28.8,30.16,WSW,250,0.0,0.0,61,0.00,,,0.00,meteohub,2013-02-25 23:02:00,
2013-02-25 18:07:00,40.6,29.1,30.16,WSW,250,0.0,0.0,63,0.00,,,0.00,meteohub,2013-02-25 23:07:00,
2013-02-25 18:12:00,40.3,28.8,30.17,WSW,250,0.0,0.0,63,0.00,,,0.00,meteohub,2013-02-25 23:12:00,
2013-02-25 18:17:00,39.9,28.8,30.17,WSW,250,0.0,0.0,64,0.00,,,0.00,meteohub,2013-02-25 23:17:00,
2013-02-25 18:22:00,39.6,28.8,30.17,WSW,250,0.0,0.0,65,0.00,,,0.00,meteohub,2013-02-25 23:22:00,
2013-02-25 18:27:00,39.0,28.2,30.17,WSW,250,0.0,0.0,65,0.00,,,0.00,meteohub,2013-02-25 23:27:00,
2013-02-25 18:32:00,38.7,28.6,30.18,WSW,250,0.0,0.0,67,0.00,,,0.00,meteohub,2013-02-25 23:32:00,
2013-02-25 18:37:00,38.5,28.8,30.18,WSW,250,0.0,0.0,68,0.00,,,0.00,meteohub,2013-02-25 23:37:00,
2013-02-25 18:42:00,38.3,28.9,30.18,WSW,250,0.0,0.0,69,0.00,,,0.00,meteohub,2013-02-25 23:42:00,
2013-02-25 18:47:00,38.1,28.9,30.18,WSW,250,0.0,0.0,69,0.00,,,0.00,meteohub,2013-02-25 23:47:00,
2013-02-25 18:52:00,37.9,28.8,30.18,WSW,250,0.0,0.0,69,0.00,,,0.00,meteohub,2013-02-25 23:52:00,
2013-02-25 18:57:00,37.9,28.8,30.19,WSW,250,0.0,0.0,69,0.00,,,0.00,meteohub,2013-02-25 23:57:00,
2013-02-25 19:02:00,37.9,29.1,30.19,WSW,250,0.0,0.0,70,0.00,,,0.00,meteohub,2013-02-26 00:02:00,
2013-02-25 19:07:00,37.9,29.1,30.19,WSW,250,0.0,0.0,70,0.00,,,0.00,meteohub,2013-02-26 00:07:00,
2013-02-25 19:12:00,37.9,29.1,30.19,WSW,250,0.0,0.0,70,0.00,,,0.00,meteohub,2013-02-26 00:12:00,
2013-02-25 19:17:00,37.9,29.3,30.19,WSW,250,0.0,0.0,71,0.00,,,0.00,meteohub,2013-02-26 00:17:00,
2013-02-25 19:22:00,37.9,29.3,30.19,WSW,250,0.0,0.0,71,0.00,,,0.00,meteohub,2013-02-26 00:22:00,
2013-02-25 19:27:00,37.9,29.3,30.19,WSW,250,0.0,0.0,71,0.00,,,0.00,meteohub,2013-02-26 00:27:00,
2013-02-25 19:32:00,37.9,29.7,30.19,WSW,250,0.0,0.0,72,0.00,,,0.00,meteohub,2013-02-26 00:32:00,
2013-02-25 19:37:00,37.9,30.0,30.19,WSW,250,0.0,0.0,73,0.00,,,0.00,meteohub,2013-02-26 00:37:00,
2013-02-25 19:42:00,37.8,29.8,30.19,WSW,250,0.0,0.0,73,0.00,,,0.00,meteohub,2013-02-26 00:42:00,
2013-02-25 19:47:00,37.8,29.8,30.19,WSW,250,0.0,0.0,73,0.00,,,0.00,meteohub,2013-02-26 00:47:00,
2013-02-25 19:52:00,37.9,30.0,30.20,WSW,250,0.0,0.0,73,0.00,,,0.00,meteohub,2013-02-26 00:52:00,
2013-02-25 19:57:00,37.9,30.0,30.20,WSW,250,0.0,0.0,73,0.00,,,0.00,meteohub,2013-02-26 00:57:00,
2013-02-25 20:02:00,37.8,30.2,30.20,WSW,250,0.0,0.0,74,0.00,,,0.00,meteohub,2013-02-26 01:02:00,
2013-02-25 20:07:00,37.8,30.2,30.20,WSW,250,0.0,0.0,74,0.00,,,0.00,meteohub,2013-02-26 01:07:00,
2013-02-25 20:12:00,37.8,30.2,30.20,WSW,250,0.0,0.0,74,0.00,,,0.00,meteohub,2013-02-26 01:12:00,
2013-02-25 20:16:00,37.6,30.0,30.20,WSW,250,0.0,0.0,74,0.00,,,0.00,meteohub,2013-02-26 01:16:00,
2013-02-25 20:21:00,37.6,30.4,30.20,WSW,250,0.0,0.0,75,0.00,,,0.00,meteohub,2013-02-26 01:21:00,
2013-02-25 20:26:00,37.6,30.4,30.20,WSW,250,0.0,0.0,75,0.00,,,0.00,meteohub,2013-02-26 01:26:00,
2013-02-25 20:32:00,37.4,30.2,30.20,WSW,250,0.0,0.0,75,0.00,,,0.00,meteohub,2013-02-26 01:32:00,
2013-02-25 20:37:00,37.4,30.2,30.20,WSW,250,0.0,0.0,75,0.00,,,0.00,meteohub,2013-02-26 01:37:00,
2013-02-25 20:42:00,37.2,29.7,30.20,WSW,250,0.0,0.0,74,0.00,,,0.00,meteohub,2013-02-26 01:42:00,
2013-02-25 20:47:00,37.2,29.7,30.20,WSW,250,0.0,0.0,74,0.00,,,0.00,meteohub,2013-02-26 01:47:00,
2013-02-25 20:52:00,37.0,29.8,30.20,WSW,250,0.0,0.0,75,0.00,,,0.00,meteohub,2013-02-26 01:52:00,
2013-02-25 20:57:00,37.0,29.8,30.20,WSW,250,0.0,0.0,75,0.00,,,0.00,meteohub,2013-02-26 01:57:00,
2013-02-25 21:02:00,36.9,29.7,30.20,WSW,250,0.0,0.0,75,0.00,,,0.00,meteohub,2013-02-26 02:02:00,
2013-02-25 21:07:00,36.9,29.7,30.20,WSW,250,0.0,0.0,75,0.00,,,0.00,meteohub,2013-02-26 02:07:00,
2013-02-25 21:12:00,37.0,29.8,30.21,WSW,250,0.0,0.0,75,0.00,,,0.00,meteohub,2013-02-26 02:12:00,
2013-02-25 21:17:00,37.2,29.7,30.21,WSW,250,0.0,1.0,74,0.00,,,0.00,meteohub,2013-02-26 02:17:00,
2013-02-25 21:22:00,37.6,30.0,30.21,WSW,250,0.0,1.0,74,0.00,,,0.00,meteohub,2013-02-26 02:22:00,
2013-02-25 21:27:00,37.6,30.0,30.21,WSW,250,0.0,0.0,74,0.00,,,0.00,meteohub,2013-02-26 02:27:00,
2013-02-25 21:32:00,37.4,30.2,30.21,WSW,250,0.0,0.0,75,0.00,,,0.00,meteohub,2013-02-26 02:32:00,
2013-02-25 21:37:00,37.2,29.7,30.21,WSW,250,0.0,0.0,74,0.00,,,0.00,meteohub,2013-02-26 02:37:00,
2013-02-25 21:42:00,37.2,29.7,30.21,WSW,250,0.0,0.0,74,0.00,,,0.00,meteohub,2013-02-26 02:42:00,
2013-02-25 21:47:00,37.2,29.7,30.21,WSW,250,0.0,0.0,74,0.00,,,0.00,meteohub,2013-02-26 02:47:00,
2013-02-25 21:52:00,37.2,29.3,30.22,WSW,250,0.0,0.0,73,0.00,,,0.00,meteohub,2013-02-26 02:52:00,
2013-02-25 21:57:00,37.2,29.3,30.22,WSW,250,0.0,0.0,73,0.00,,,0.00,meteohub,2013-02-26 02:57:00,
2013-02-25 22:02:00,37.2,29.7,30.22,WSW,250,0.0,0.0,74,0.00,,,0.00,meteohub,2013-02-26 03:02:00,
2013-02-25 22:07:00,37.2,29.7,30.22,WSW,250,0.0,0.0,74,0.00,,,0.00,meteohub,2013-02-26 03:07:00,
2013-02-25 22:12:00,37.2,29.3,30.22,WSW,250,0.0,0.0,73,0.00,,,0.00,meteohub,2013-02-26 03:12:00,
2013-02-25 22:17:00,37.4,29.8,30.23,WSW,250,0.0,0.0,74,0.00,,,0.00,meteohub,2013-02-26 03:17:00,
2013-02-25 22:22:00,37.6,30.0,30.23,WSW,250,0.0,0.0,74,0.00,,,0.00,meteohub,2013-02-26 03:22:00,
2013-02-25 22:27:00,37.6,30.0,30.22,WSW,250,0.0,0.0,74,0.00,,,0.00,meteohub,2013-02-26 03:27:00,
2013-02-25 22:32:00,37.6,30.0,30.23,WSW,250,0.0,0.0,74,0.00,,,0.00,meteohub,2013-02-26 03:32:00,
2013-02-25 22:37:00,37.6,29.7,30.22,WSW,250,0.0,0.0,73,0.00,,,0.00,meteohub,2013-02-26 03:37:00,
2013-02-25 22:42:00,37.6,29.7,30.23,WSW,250,0.0,0.0,73,0.00,,,0.00,meteohub,2013-02-26 03:42:00,
2013-02-25 22:47:00,37.6,29.7,30.22,WSW,250,0.0,0.0,73,0.00,,,0.00,meteohub,2013-02-26 03:47:00,
2013-02-25 22:52:00,37.4,29.1,30.22,WSW,250,0.0,0.0,72,0.00,,,0.00,meteohub,2013-02-26 03:52:00,
2013-02-25 22:57:00,37.2,29.1,30.22,WSW,250,0.0,0.0,72,0.00,,,0.00,meteohub,2013-02-26 03:57:00,
2013-02-25 23:02:00,37.2,29.1,30.22,WSW,250,0.0,0.0,72,0.00,,,0.00,meteohub,2013-02-26 04:02:00,
2013-02-25 23:07:00,37.2,29.1,30.22,WSW,250,0.0,0.0,72,0.00,,,0.00,meteohub,2013-02-26 04:07:00,
2013-02-25 23:12:00,37.2,29.1,30.22,WSW,250,0.0,0.0,72,0.00,,,0.00,meteohub,2013-02-26 04:12:00,
2013-02-25 23:17:00,37.0,28.9,30.22,WSW,250,0.0,0.0,72,0.00,,,0.00,meteohub,2013-02-26 04:17:00,
2013-02-25 23:22:00,36.9,28.8,30.22,WSW,250,0.0,0.0,72,0.00,,,0.00,meteohub,2013-02-26 04:22:00,
2013-02-25 23:27:00,36.5,28.4,30.22,WSW,250,0.0,0.0,72,0.00,,,0.00,meteohub,2013-02-26 04:27:00,
2013-02-25 23:32:00,36.3,28.6,30.22,WSW,250,0.0,0.0,73,0.00,,,0.00,meteohub,2013-02-26 04:32:00,
2013-02-25 23:37:00,36.0,28.4,30.22,WSW,250,0.0,0.0,74,0.00,,,0.00,meteohub,2013-02-26 04:37:00,
2013-02-25 23:42:00,35.4,28.2,30.22,WSW,250,0.0,0.0,75,0.00,,,0.00,meteohub,2013-02-26 04:42:00,
2013-02-25 23:47:00,35.4,28.2,30.22,WSW,250,0.0,0.0,75,0.00,,,0.00,meteohub,2013-02-26 04:47:00,
2013-02-25 23:52:00,35.4,28.6,30.21,WSW,250,0.0,0.0,76,0.00,,,0.00,meteohub,2013-02-26 04:52:00,
2013-02-25 23:57:00,35.2,28.4,30.22,WSW,250,0.0,0.0,76,0.00,,,0.00,meteohub,2013-02-26 04:57:00,